Overview Statistics Trail Chart Weather Telemetry Raw packets
 

This is the latest recevied weather packets stored in our database for station/object KC1TEM-13. If no packets are shown the sender has not sent any weather packets the latest 10 day(s).

<< 1 2 3 4 5 6 7 >>
Time Temp. Humidity Pressure Rain* Wind** Luminosity Snow
1788607769 16.11° C 96% 1010 hPa 0 mm - 25 W/m² -
1788607465 16.11° C 96% 1010 hPa 0 mm - 24 W/m² -
1788607160 15.56° C 96% 1009.9 hPa 0 mm - 18 W/m² -
1788606854 15.56° C 97% 1009.8 hPa 0 mm - 21 W/m² -
1788606554 15.56° C 97% 1009.7 hPa 0 mm - 30 W/m² -
1788606248 15.56° C 97% 1010 hPa 0 mm - 24 W/m² -
1788605943 15.56° C 97% 1009.5 hPa 0 mm - 15 W/m² -
1788605643 15.56° C 97% 1009.6 hPa 0 mm - 11 W/m² -
1788605342 15.56° C 97% 1009.6 hPa 0 mm - 9 W/m² -
1788605039 15° C 97% 1009.6 hPa 0 mm - 9 W/m² -
1788604738 15° C 96% 1009.6 hPa 0 mm - 11 W/m² -
1788604434 15° C 96% 1009.6 hPa 0 mm - 10 W/m² -
1788604130 15° C 96% 1009.5 hPa 0 mm - 8 W/m² -
1788603827 15° C 96% 1009.3 hPa 0 mm - 6 W/m² -
1788603526 15° C 95% 1009.3 hPa 0 mm - 4 W/m² -
1788603225 15° C 95% 1009.3 hPa 0 mm - 2 W/m² -
1788602919 15.56° C 95% 1009.3 hPa 0 mm - 1 W/m² -
1788602616 15.56° C 95% 1009.2 hPa 0 mm - 1 W/m² -
1788602315 15.56° C 95% 1009.1 hPa 0 mm - 0 W/m² -
1788602015 15.56° C 94% 1009.3 hPa 0 mm - 0 W/m² -
1788601709 15.56° C 94% 1009.2 hPa 0 mm - 0 W/m² -
1788601410 16.11° C 94% 1009.3 hPa 0 mm - 0 W/m² -
1788601104 16.11° C 94% 1009.1 hPa 0 mm - 0 W/m² -
1788600800 16.11° C 94% 1009.1 hPa 0 mm - 0 W/m² -
1788600496 16.11° C 95% 1009.2 hPa 0 mm - 0 W/m² -

* Rain latest hour (hover to see other rain measurements)
** Current wind speed in m/s (hover to see current wind gust speed)